Regional Weather Roundup
Issued by NWS Midland/Odessa, TX

Home | Current Version | Previous Version | Text Only | Print | Product List | Glossary On
Versions: 1 2 3 4 5 6 7 8 9 10 11 12 13 14 15 16 17 18 19 20 21 22 23 24 25 26 27 28 29 30 31 32 33 34 35 36 37 38 39 40 41 42 43 44 45 46 47 48 49 50
000
ASUS44 KMAF 061210
RWRMAF
MIDLAND AREA WEATHER ROUNDUP
NATIONAL WEATHER SERVICE MIDLAND TX
600 AM CST FRI MAR 06 2015

...IN SOUTHWEST TEXAS AND SOUTHEAST NEW MEXICO...

CITY           SKY/WX    TMP DP  RH WIND       PRES   REMARKS
ALPINE         CLEAR     30  24  79 SW10      30.42S WCI  21
ANDREWS        FAIR      24  23  96 SE3       30.41S
ARTESIA        FOG       25  25 100 CALM      30.39R VSB<1/4
BIG SPRING     CLEAR     24  17  75 S5        30.48R WCI  18
CARLSBAD       PTCLDY    22  18  85 CALM      30.38R
DRYDEN           N/A     31  25  78 NE6       30.44R WCI  25
FORT STOCKTON  CLEAR     26  24  92 S5        30.40S WCI  20
GUAD PASS      NOT AVBL
HOBBS          PTCLDY    23  23 100 CALM      30.39R
MARFA          CLEAR     19  18  93 N7        30.38R WCI  10
MIDLAND AIRPK  PTCLDY    29  22  74 S6        30.44S WCI  23
MIDLAND INTL   PTCLDY    26  20  77 S6        30.43R WCI  19
ODESSA         PTCLDY    27  19  72 S7        30.42R WCI  19
PECOS          CLEAR     25  24  93 CALM      30.43R FOG
PRESIDIO       FAIR      36  25  66 N3        30.40S
SEMINOLE       PTCLDY    23  22  97 CALM      30.41R
SNYDER         CLEAR     23  19  87 SW5       30.47R WCI  17
WINK           CLEAR     25  20  81 NE5       30.40R WCI  19
$$
...OTHER STATIONS IN TEXAS...

CITY           SKY/WX    TMP DP  RH WIND       PRES   REMARKS
ABILENE        CLEAR     27  19  72 S9        30.50R WCI  18
AMARILLO       CLEAR     27  22  81 SW14      30.34S WCI  16
AUSTIN         MOCLDY    23  21  92 NW3       30.58S
BROWNSVILLE    CLOUDY    44  33  65 N12       30.49S WCI  38
CORPUS CHRISTI CLOUDY    38  27  64 N15       30.56R WCI  29
DALLAS FTW     CLEAR     25  20  81 S5        30.57R WCI  19
DEL RIO        PTCLDY    33  27  78 NE3       30.52R
EL PASO        CLEAR     30  20  66 N6        30.35R WCI  24
HOUSTON INT    PTCLDY    31  24  75 N6        30.58R WCI  25
LUBBOCK        CLEAR     25  21  85 W3        30.39R
SAN ANGELO     PTCLDY    24  19  81 SW6       30.49R WCI  17
SAN ANTONIO    PTCLDY    32  19  58 N8        30.55S WCI  25
WACO           CLEAR     21  18  88 CALM      30.59R
WICHITA FALLS  NOT AVBL
$$
...OTHER LOCATIONS IN NEW MEXICO...

CITY           SKY/WX    TMP DP  RH WIND       PRES   REMARKS
ALAMAGORDO     PTCLDY    25  19  80 N5        30.37R WCI  19
ALBUQUERQUE    PTCLDY    31  14  49 CALM      30.37R
CANNON AFB     PTCLDY    24  22  91 W9        30.34S WCI  14
CLOVIS         PTCLDY    19  16  86 W5        30.34S WCI  13
HOLLOMAN AFB   PTCLDY    25  20  80 N5        30.35S WCI  20
ROSWELL        FOG       25  23  92 S7        30.37R VSB 1/2 WCI  17
RUIDOSO        CLEAR     32   1  27 NW6       30.35R WCI  26
SANTA FE       PTCLDY    26  13  57 N8        30.33S WCI  18
TRUTH OR CONSE CLEAR     28  15  58 NW5       30.34R WCI  23
TUCUMCARI      CLEAR     23  20  88 W6        30.32R WCI  16
$$



USA.gov is the U.S. government's official web portal to all federal, state and local government web resources and services.